Year,Month,Day,Hour,Minute,Value (Times are PST for temperature in C)
2010,06,24,00,00,17.70
2010,06,24,00,01,17.70
2010,06,24,00,02,17.70
2010,06,24,00,03,17.70
2010,06,24,00,04,17.70
2010,06,24,00,05,17.70
2010,06,24,00,06,17.70
2010,06,24,00,07,17.60
2010,06,24,00,08,17.60
2010,06,24,00,09,17.60
2010,06,24,00,10,17.60
2010,06,24,00,11,17.60
2010,06,24,00,12,17.60
2010,06,24,00,13,17.60
2010,06,24,00,14,17.60
2010,06,24,00,15,17.60
2010,06,24,00,16,17.60
2010,06,24,00,17,17.60
2010,06,24,00,18,17.60
2010,06,24,00,19,17.60
2010,06,24,00,20,17.60
2010,06,24,00,21,17.60
2010,06,24,00,22,17.60
2010,06,24,00,23,17.60
2010,06,24,00,24,17.60
2010,06,24,00,25,17.60
2010,06,24,00,26,17.60
2010,06,24,00,27,17.60
2010,06,24,00,28,17.60
2010,06,24,00,29,17.60
2010,06,24,00,30,17.60
2010,06,24,00,31,17.60
2010,06,24,00,32,17.60
2010,06,24,00,33,17.60
2010,06,24,00,34,17.60
2010,06,24,00,35,17.60
2010,06,24,00,36,17.60
2010,06,24,00,37,17.60
2010,06,24,00,38,17.60
2010,06,24,00,39,17.60
2010,06,24,00,40,17.60
2010,06,24,00,41,17.50
2010,06,24,00,42,17.50
2010,06,24,00,43,17.50
2010,06,24,00,44,17.40
2010,06,24,00,45,17.40
2010,06,24,00,46,17.40
2010,06,24,00,47,17.40
2010,06,24,00,48,17.40
2010,06,24,00,49,17.40
2010,06,24,00,50,17.40
2010,06,24,00,51,17.40
2010,06,24,00,52,17.40
2010,06,24,00,53,17.40
2010,06,24,00,54,17.40
2010,06,24,00,55,17.40
2010,06,24,00,56,17.40
2010,06,24,00,57,17.40
2010,06,24,00,58,17.30
2010,06,24,00,59,17.30
2010,06,24,01,00,17.20
2010,06,24,01,01,17.20
2010,06,24,01,02,17.20
2010,06,24,01,03,17.20
2010,06,24,01,04,17.20
2010,06,24,01,05,17.20
2010,06,24,01,06,17.20
2010,06,24,01,07,17.20
2010,06,24,01,08,17.10
2010,06,24,01,09,17.20
2010,06,24,01,10,17.20
2010,06,24,01,11,17.10
2010,06,24,01,12,17.20
2010,06,24,01,13,17.20
2010,06,24,01,14,17.10
2010,06,24,01,15,17.10
2010,06,24,01,16,17.20
2010,06,24,01,17,17.20
2010,06,24,01,18,17.20
2010,06,24,01,19,17.20
2010,06,24,01,20,17.20
2010,06,24,01,21,17.20
2010,06,24,01,22,17.20
2010,06,24,01,23,17.20
2010,06,24,01,24,17.20
2010,06,24,01,25,17.20
2010,06,24,01,26,17.20
2010,06,24,01,27,17.20
2010,06,24,01,28,17.20
2010,06,24,01,29,17.20
2010,06,24,01,30,17.10
2010,06,24,01,31,17.10
2010,06,24,01,32,17.10
2010,06,24,01,33,17.10
2010,06,24,01,34,17.10
2010,06,24,01,35,17.10
2010,06,24,01,36,17.10
2010,06,24,01,37,17.10
2010,06,24,01,38,17.10
2010,06,24,01,39,17.10
2010,06,24,01,40,17.00
2010,06,24,01,41,17.00
2010,06,24,01,42,16.90
2010,06,24,01,43,16.90
2010,06,24,01,44,16.90
2010,06,24,01,49,16.90
2010,06,24,01,50,16.80
2010,06,24,01,51,16.80
2010,06,24,01,52,16.80
2010,06,24,01,53,16.80
2010,06,24,01,54,16.80
2010,06,24,01,55,16.80
2010,06,24,01,56,16.80
2010,06,24,01,57,16.80
2010,06,24,01,58,16.80
2010,06,24,01,59,16.80
2010,06,24,02,00,16.80
2010,06,24,02,01,16.80
2010,06,24,02,02,16.80
2010,06,24,02,03,16.80
2010,06,24,02,04,16.70
2010,06,24,02,05,16.70
2010,06,24,02,06,16.70
2010,06,24,02,07,16.70
2010,06,24,02,08,16.60
2010,06,24,02,09,16.60
2010,06,24,02,10,16.60
2010,06,24,02,11,16.60
2010,06,24,02,12,16.50
2010,06,24,02,13,16.50
2010,06,24,02,14,16.50
2010,06,24,02,15,16.50
2010,06,24,02,16,16.40
2010,06,24,02,17,16.40
2010,06,24,02,18,16.40
2010,06,24,02,19,16.40
2010,06,24,02,20,16.40
2010,06,24,02,21,16.30
2010,06,24,02,22,16.30
2010,06,24,02,23,16.30
2010,06,24,02,24,16.30
2010,06,24,02,25,16.30
2010,06,24,02,26,16.30
2010,06,24,02,27,16.20
2010,06,24,02,28,16.20
2010,06,24,02,29,16.20
2010,06,24,02,30,16.20
2010,06,24,02,31,16.20
2010,06,24,02,32,16.20
2010,06,24,02,33,16.20
2010,06,24,02,34,16.20
2010,06,24,02,35,16.20
2010,06,24,02,36,16.20
2010,06,24,02,37,16.30
2010,06,24,02,38,16.30
2010,06,24,02,39,16.30
2010,06,24,02,40,16.30
2010,06,24,02,41,16.40
2010,06,24,02,42,16.40
2010,06,24,02,43,16.40
2010,06,24,02,44,16.50
2010,06,24,02,45,16.50
2010,06,24,02,46,16.50
2010,06,24,02,47,16.50
2010,06,24,02,48,16.60
2010,06,24,02,49,16.60
2010,06,24,02,50,16.50
2010,06,24,02,51,16.50
2010,06,24,02,52,16.50
2010,06,24,02,53,16.50
2010,06,24,02,54,16.50
2010,06,24,02,55,16.50
2010,06,24,02,56,16.50
2010,06,24,02,57,16.50
2010,06,24,02,58,16.50
2010,06,24,02,59,16.50
2010,06,24,03,00,16.50
2010,06,24,03,01,16.50
2010,06,24,03,02,16.60
2010,06,24,03,03,16.50
2010,06,24,03,04,16.50
2010,06,24,03,05,16.50
2010,06,24,03,06,16.50
2010,06,24,03,07,16.50
2010,06,24,03,08,16.50
2010,06,24,03,09,16.40
2010,06,24,03,10,16.40
2010,06,24,03,11,16.40
2010,06,24,03,12,16.30
2010,06,24,03,13,16.30
2010,06,24,03,14,16.20
2010,06,24,03,15,16.20
2010,06,24,03,16,16.10
2010,06,24,03,17,16.00
2010,06,24,03,18,15.90
2010,06,24,03,19,15.90
2010,06,24,03,20,15.80
2010,06,24,03,21,15.80
2010,06,24,03,22,15.70
2010,06,24,03,23,15.70
2010,06,24,03,24,15.70
2010,06,24,03,25,15.60
2010,06,24,03,26,15.60
2010,06,24,03,27,15.60
2010,06,24,03,28,15.50
2010,06,24,03,29,15.40
2010,06,24,03,30,15.40
2010,06,24,03,31,15.40
2010,06,24,03,32,15.30
2010,06,24,03,33,15.30
2010,06,24,03,34,15.30
2010,06,24,03,35,15.20
2010,06,24,03,36,15.20
2010,06,24,03,37,15.20
2010,06,24,03,38,15.20
2010,06,24,03,39,15.20
2010,06,24,03,40,15.10
2010,06,24,03,41,15.10
2010,06,24,03,42,15.10
2010,06,24,03,43,15.00
2010,06,24,03,44,15.00
2010,06,24,03,45,15.00
2010,06,24,03,46,15.00
2010,06,24,03,47,15.00
2010,06,24,03,48,15.00
2010,06,24,03,49,15.00
2010,06,24,03,50,15.00
2010,06,24,03,51,15.00
2010,06,24,03,52,15.00
2010,06,24,03,53,15.00
2010,06,24,03,54,15.00
2010,06,24,03,55,15.00
2010,06,24,03,56,15.00
2010,06,24,03,57,15.00
2010,06,24,03,58,15.00
2010,06,24,03,59,15.00
2010,06,24,04,00,15.00
2010,06,24,04,01,15.00
2010,06,24,04,02,15.00
2010,06,24,04,03,15.00
2010,06,24,04,04,15.00
2010,06,24,04,05,15.00
2010,06,24,04,06,15.00
2010,06,24,04,07,15.00
2010,06,24,04,08,15.00
2010,06,24,04,09,15.00
2010,06,24,04,10,15.00
2010,06,24,04,11,15.00
2010,06,24,04,12,15.00
2010,06,24,04,13,15.00
2010,06,24,04,14,15.00
2010,06,24,04,15,15.00
2010,06,24,04,16,14.90
2010,06,24,04,17,14.90
2010,06,24,04,18,14.90
2010,06,24,04,19,14.90
2010,06,24,04,20,14.90
2010,06,24,04,21,14.80
2010,06,24,04,22,14.80
2010,06,24,04,23,14.80
2010,06,24,04,24,14.80
2010,06,24,04,25,14.80
2010,06,24,04,26,14.80
2010,06,24,04,27,14.80
2010,06,24,04,28,14.80
2010,06,24,04,29,14.80
2010,06,24,04,30,14.80
2010,06,24,04,31,14.80
2010,06,24,04,32,14.70
2010,06,24,04,33,14.70
2010,06,24,04,34,14.70
2010,06,24,04,35,14.70
2010,06,24,04,36,14.70
2010,06,24,04,37,14.70
2010,06,24,04,38,14.70
2010,06,24,04,39,14.70
2010,06,24,04,40,14.70
2010,06,24,04,41,14.70
2010,06,24,04,42,14.70
2010,06,24,04,43,14.70
2010,06,24,04,44,14.70
2010,06,24,04,45,14.70
2010,06,24,04,46,14.70
2010,06,24,04,47,14.70
2010,06,24,04,48,14.70
2010,06,24,04,49,14.70
2010,06,24,04,50,14.70
2010,06,24,04,51,14.70
2010,06,24,04,52,14.70
2010,06,24,04,53,14.70
2010,06,24,04,54,14.70
2010,06,24,04,55,14.70
2010,06,24,04,56,14.70
2010,06,24,04,57,14.70
2010,06,24,04,58,14.70
2010,06,24,04,59,14.70
2010,06,24,05,00,14.70
2010,06,24,05,01,14.70
2010,06,24,05,02,14.70
2010,06,24,05,03,14.70
2010,06,24,05,04,14.70
2010,06,24,05,05,14.70
2010,06,24,05,06,14.60
2010,06,24,05,07,14.60
2010,06,24,05,08,14.60
2010,06,24,05,09,14.60
2010,06,24,05,10,14.60
2010,06,24,05,11,14.60
2010,06,24,05,12,14.60
2010,06,24,05,13,14.60
2010,06,24,05,14,14.60
2010,06,24,05,15,14.60
2010,06,24,05,16,14.60
2010,06,24,05,17,14.60
2010,06,24,05,18,14.70
2010,06,24,05,19,14.70
2010,06,24,05,20,14.70
2010,06,24,05,21,14.70
2010,06,24,05,22,14.70
2010,06,24,05,23,14.70
2010,06,24,05,24,14.70
2010,06,24,05,25,14.70
2010,06,24,05,26,14.60
2010,06,24,05,27,14.60
2010,06,24,05,28,14.70
2010,06,24,05,29,14.80
2010,06,24,05,30,14.80
2010,06,24,05,31,14.90
2010,06,24,05,32,15.00
2010,06,24,05,33,15.00
2010,06,24,05,34,15.00
2010,06,24,05,35,15.00
2010,06,24,05,36,15.00
2010,06,24,05,37,15.00
2010,06,24,05,38,15.00
2010,06,24,05,39,15.00
2010,06,24,05,40,15.00
2010,06,24,05,41,15.00
2010,06,24,05,42,15.00
2010,06,24,05,43,15.00
2010,06,24,05,44,15.00
2010,06,24,05,45,15.00
2010,06,24,05,46,15.00
2010,06,24,05,47,15.00
2010,06,24,05,48,15.00
2010,06,24,05,49,15.00
2010,06,24,05,50,15.00
2010,06,24,05,51,15.00
2010,06,24,05,52,15.00
2010,06,24,05,53,15.00
2010,06,24,05,54,15.00
2010,06,24,05,55,15.00
2010,06,24,05,56,15.00
2010,06,24,05,57,15.00
2010,06,24,05,58,15.00
2010,06,24,05,59,15.00
2010,06,24,06,00,14.90
2010,06,24,06,01,14.90
2010,06,24,06,02,14.90
2010,06,24,06,03,14.90
2010,06,24,06,04,14.90
2010,06,24,06,05,14.90
2010,06,24,06,06,14.90
2010,06,24,06,07,14.90
2010,06,24,06,08,14.80
2010,06,24,06,09,14.80
2010,06,24,06,10,14.80
2010,06,24,06,11,14.80
2010,06,24,06,12,14.80
2010,06,24,06,13,14.80
2010,06,24,06,14,14.80
2010,06,24,06,15,14.80
2010,06,24,06,16,14.80
2010,06,24,06,17,14.80
2010,06,24,06,18,14.80
2010,06,24,06,19,14.80
2010,06,24,06,20,14.80
2010,06,24,06,21,14.80
2010,06,24,06,22,14.80
2010,06,24,06,23,14.80
2010,06,24,06,24,14.80
2010,06,24,06,25,14.80
2010,06,24,06,26,14.80
2010,06,24,06,27,14.80
2010,06,24,06,28,14.80
2010,06,24,06,29,14.80
2010,06,24,06,30,14.80
2010,06,24,06,31,14.80
2010,06,24,06,32,14.80
2010,06,24,06,33,14.80
2010,06,24,06,34,14.80
2010,06,24,06,35,14.80
2010,06,24,06,36,14.90
2010,06,24,06,37,14.90
2010,06,24,06,38,14.90
2010,06,24,06,39,14.90
2010,06,24,06,40,14.90
2010,06,24,06,41,14.90
2010,06,24,06,42,15.00
2010,06,24,06,43,15.00
2010,06,24,06,44,15.00
2010,06,24,06,45,15.00
2010,06,24,06,46,15.00
2010,06,24,06,47,15.00
2010,06,24,06,48,15.00
2010,06,24,06,49,15.00
2010,06,24,06,50,15.00
2010,06,24,06,51,15.00
2010,06,24,06,52,15.00
2010,06,24,06,53,15.00
2010,06,24,06,54,15.00
2010,06,24,06,55,15.00
2010,06,24,06,56,15.00
2010,06,24,06,57,15.00
2010,06,24,06,58,15.00
2010,06,24,06,59,15.00
2010,06,24,07,00,15.00
2010,06,24,07,01,15.00
2010,06,24,07,02,15.00
2010,06,24,07,03,15.00
2010,06,24,07,04,15.00
2010,06,24,07,05,15.00
2010,06,24,07,06,15.10
2010,06,24,07,07,15.10
2010,06,24,07,08,15.20
2010,06,24,07,09,15.20
2010,06,24,07,10,15.20
2010,06,24,07,11,15.30
2010,06,24,07,12,15.30
2010,06,24,07,13,15.30
2010,06,24,07,14,15.30
2010,06,24,07,15,15.30
2010,06,24,07,16,15.40
2010,06,24,07,17,15.40
2010,06,24,07,18,15.40
2010,06,24,07,19,15.40
2010,06,24,07,20,15.50
2010,06,24,07,21,15.50
2010,06,24,07,22,15.50
2010,06,24,07,23,15.60
2010,06,24,07,24,15.60
2010,06,24,07,25,15.60
2010,06,24,07,26,15.60
2010,06,24,07,27,15.70
2010,06,24,07,28,15.70
2010,06,24,07,29,15.70
2010,06,24,07,30,15.70
2010,06,24,07,31,15.80
2010,06,24,07,32,15.80
2010,06,24,07,33,15.80
2010,06,24,07,34,15.80
2010,06,24,07,35,15.80
2010,06,24,07,36,15.90
2010,06,24,07,37,15.90
2010,06,24,07,38,15.90
2010,06,24,07,39,16.00
2010,06,24,07,40,16.00
2010,06,24,07,41,16.10
2010,06,24,07,42,16.10
2010,06,24,07,43,16.10
2010,06,24,07,44,16.10
2010,06,24,07,45,16.10
2010,06,24,07,46,16.20
2010,06,24,07,47,16.20
2010,06,24,07,48,16.20
2010,06,24,07,49,16.20
2010,06,24,07,50,16.30
2010,06,24,07,51,16.30
2010,06,24,07,52,16.30
2010,06,24,07,53,16.30
2010,06,24,07,54,16.40
2010,06,24,07,55,16.40
2010,06,24,07,56,16.40
2010,06,24,07,57,16.40
2010,06,24,07,58,16.40
2010,06,24,07,59,16.40
2010,06,24,08,00,16.40
2010,06,24,08,01,16.50
2010,06,24,08,02,16.50
2010,06,24,08,03,16.50
2010,06,24,08,04,16.60
2010,06,24,08,05,16.60
2010,06,24,08,06,16.60
2010,06,24,08,07,16.70
2010,06,24,08,08,16.70
2010,06,24,08,09,16.80
2010,06,24,08,10,16.80
2010,06,24,08,11,16.90
2010,06,24,08,12,16.90
2010,06,24,08,13,16.90
2010,06,24,08,14,16.90
2010,06,24,08,15,17.00
2010,06,24,08,16,17.00
2010,06,24,08,17,17.10
2010,06,24,08,18,17.10
2010,06,24,08,19,17.10
2010,06,24,08,20,17.20
2010,06,24,08,21,17.20
2010,06,24,08,22,17.20
2010,06,24,08,23,17.20
2010,06,24,08,24,17.20
2010,06,24,08,25,17.30
2010,06,24,08,26,17.30
2010,06,24,08,27,17.30
2010,06,24,08,28,17.40
2010,06,24,08,29,17.40
2010,06,24,08,30,17.40
2010,06,24,08,31,17.40
2010,06,24,08,32,17.40
2010,06,24,08,33,17.50
2010,06,24,08,34,17.50
2010,06,24,08,35,17.50
2010,06,24,08,36,17.50
2010,06,24,08,37,17.50
2010,06,24,08,38,17.60
2010,06,24,08,39,17.60
2010,06,24,08,40,17.60
2010,06,24,08,41,17.60
2010,06,24,08,42,17.60
2010,06,24,08,43,17.70
2010,06,24,08,44,17.70
2010,06,24,08,45,17.70
2010,06,24,08,46,17.70
2010,06,24,08,47,17.70
2010,06,24,08,48,17.70
2010,06,24,08,49,17.70
2010,06,24,08,50,17.70
2010,06,24,08,51,17.80
2010,06,24,08,52,17.80
2010,06,24,08,53,17.80
2010,06,24,08,54,17.80
2010,06,24,08,55,17.80
2010,06,24,08,56,17.80
2010,06,24,08,57,17.80
2010,06,24,08,58,17.80
2010,06,24,08,59,17.80
2010,06,24,09,00,17.80
2010,06,24,09,01,17.80
2010,06,24,09,02,17.80
2010,06,24,09,03,17.80
2010,06,24,09,04,17.80
2010,06,24,09,05,17.80
2010,06,24,09,06,17.80
2010,06,24,09,07,17.80
2010,06,24,09,08,17.80
2010,06,24,09,09,17.80
2010,06,24,09,10,17.80
2010,06,24,09,11,17.80
2010,06,24,09,12,17.80
2010,06,24,09,13,17.80
2010,06,24,09,14,17.80
2010,06,24,09,15,17.80
2010,06,24,09,16,17.80
2010,06,24,09,17,17.80
2010,06,24,09,18,17.80
2010,06,24,09,19,17.80
2010,06,24,09,20,17.80
2010,06,24,09,21,17.90
2010,06,24,09,22,17.90
2010,06,24,09,23,17.90
2010,06,24,09,24,18.00
2010,06,24,09,25,18.00
2010,06,24,09,26,18.00
2010,06,24,09,27,18.00
2010,06,24,09,28,18.10
2010,06,24,09,29,18.10
2010,06,24,09,30,18.10
2010,06,24,09,31,18.20
2010,06,24,09,32,18.20
2010,06,24,09,33,18.20
2010,06,24,09,34,18.20
2010,06,24,09,35,18.10
2010,06,24,09,36,18.10
2010,06,24,09,37,18.10
2010,06,24,09,38,18.20
2010,06,24,09,39,18.20
2010,06,24,09,40,18.20
2010,06,24,09,41,18.20
2010,06,24,09,42,18.20
2010,06,24,09,43,18.20
2010,06,24,09,44,18.20
2010,06,24,09,45,18.20
2010,06,24,09,46,18.20
2010,06,24,09,47,18.10
2010,06,24,09,48,18.10
2010,06,24,09,49,18.10
2010,06,24,09,50,18.10
2010,06,24,09,51,18.10
2010,06,24,09,52,18.10
2010,06,24,09,53,18.10
2010,06,24,09,54,18.20
2010,06,24,09,55,18.20
2010,06,24,09,56,18.20
2010,06,24,09,57,18.20
2010,06,24,09,58,18.20
2010,06,24,09,59,18.20
2010,06,24,10,00,18.20
2010,06,24,10,01,18.20
2010,06,24,10,02,18.20
2010,06,24,10,03,18.20
2010,06,24,10,04,18.20
2010,06,24,10,05,18.20
2010,06,24,10,06,18.20
2010,06,24,10,07,18.20
2010,06,24,10,08,18.20
2010,06,24,10,09,18.10
2010,06,24,10,10,18.10
2010,06,24,10,11,18.10
2010,06,24,10,12,18.10
2010,06,24,10,13,18.10
2010,06,24,10,14,18.10
2010,06,24,10,15,18.10
2010,06,24,10,16,18.10
2010,06,24,10,17,18.00
2010,06,24,10,18,18.00
2010,06,24,10,19,18.00
2010,06,24,10,20,18.00
2010,06,24,10,21,18.00
2010,06,24,10,22,18.10
2010,06,24,10,23,18.10
2010,06,24,10,24,18.10
2010,06,24,10,25,18.10
2010,06,24,10,26,18.20
2010,06,24,10,27,18.20
2010,06,24,10,28,18.20
2010,06,24,10,29,18.20
2010,06,24,10,30,18.30
2010,06,24,10,31,18.30
2010,06,24,10,32,18.30
2010,06,24,10,33,18.40
2010,06,24,10,34,18.40
2010,06,24,10,35,18.40
2010,06,24,10,36,18.40
2010,06,24,10,37,18.50
2010,06,24,10,38,18.50
2010,06,24,10,39,18.60
2010,06,24,10,40,18.70
2010,06,24,10,41,18.80
2010,06,24,10,42,19.00
2010,06,24,10,43,19.10
2010,06,24,10,44,19.30
2010,06,24,10,45,19.30
2010,06,24,10,46,19.30
2010,06,24,10,47,19.30
2010,06,24,10,48,19.40
2010,06,24,10,49,19.40
2010,06,24,10,50,19.40
2010,06,24,10,51,19.50
2010,06,24,10,52,19.60
2010,06,24,10,53,19.70
2010,06,24,10,54,19.80
2010,06,24,10,55,19.90
2010,06,24,10,56,20.00
2010,06,24,10,57,20.10
2010,06,24,10,58,20.10
2010,06,24,10,59,20.10
2010,06,24,11,00,20.00
2010,06,24,11,01,20.00
2010,06,24,11,02,20.10
2010,06,24,11,03,20.10
2010,06,24,11,04,20.10
2010,06,24,11,05,20.10
2010,06,24,11,06,20.10
2010,06,24,11,07,20.10
2010,06,24,11,08,20.10
2010,06,24,11,09,20.10
2010,06,24,11,10,20.20
2010,06,24,11,11,20.30
2010,06,24,11,12,20.30
2010,06,24,11,13,20.30
2010,06,24,11,14,20.40
2010,06,24,11,15,20.50
2010,06,24,11,16,20.50
2010,06,24,11,17,20.60
2010,06,24,11,18,20.70
2010,06,24,11,19,20.80
2010,06,24,11,20,20.90
2010,06,24,11,21,21.00
2010,06,24,11,22,21.10
2010,06,24,11,23,21.20
2010,06,24,11,24,21.20
2010,06,24,11,25,21.20
2010,06,24,11,26,21.20
2010,06,24,11,27,21.20
2010,06,24,11,28,21.30
2010,06,24,11,29,21.30
2010,06,24,11,30,21.30
2010,06,24,11,31,21.30
2010,06,24,11,32,21.30
2010,06,24,11,33,21.30
2010,06,24,11,34,21.30
2010,06,24,11,35,21.40
2010,06,24,11,36,21.40
2010,06,24,11,37,21.50
2010,06,24,11,38,21.50
2010,06,24,11,39,21.40
2010,06,24,11,40,21.40
2010,06,24,11,41,21.40
2010,06,24,11,42,21.40
2010,06,24,11,43,21.30
2010,06,24,11,44,21.30
2010,06,24,11,45,21.30
2010,06,24,11,46,21.40
2010,06,24,11,47,21.40
2010,06,24,11,48,21.50
2010,06,24,11,49,21.50
2010,06,24,11,50,21.60
2010,06,24,11,51,21.50
2010,06,24,11,52,21.40
2010,06,24,11,53,21.40
2010,06,24,11,54,21.40
2010,06,24,11,55,21.30
2010,06,24,11,56,21.30
2010,06,24,11,57,21.20
2010,06,24,11,58,21.10
2010,06,24,11,59,21.00
2010,06,24,12,00,21.00
2010,06,24,12,01,20.90
2010,06,24,12,02,20.80
2010,06,24,12,03,20.80
2010,06,24,12,04,20.70
2010,06,24,12,05,20.70
2010,06,24,12,06,20.60
2010,06,24,12,07,20.60
2010,06,24,12,08,20.60
2010,06,24,12,09,20.60
2010,06,24,12,10,20.50
2010,06,24,12,11,20.50
2010,06,24,12,12,20.50
2010,06,24,12,13,20.40
2010,06,24,12,14,20.50
2010,06,24,12,15,20.50
2010,06,24,12,16,20.50
2010,06,24,12,17,20.50
2010,06,24,12,18,20.50
2010,06,24,12,19,20.50
2010,06,24,12,20,20.50
2010,06,24,12,21,20.50
2010,06,24,12,22,20.60
2010,06,24,12,23,20.70
2010,06,24,12,24,20.70
2010,06,24,12,25,20.80
2010,06,24,12,26,20.80
2010,06,24,12,27,20.90
2010,06,24,12,28,20.90
2010,06,24,12,29,20.90
2010,06,24,12,30,20.90
2010,06,24,12,31,20.90
2010,06,24,12,32,20.90
2010,06,24,12,33,20.90
2010,06,24,12,34,20.80
2010,06,24,12,35,20.80
2010,06,24,12,36,20.70
2010,06,24,12,37,20.70
2010,06,24,12,38,20.70
2010,06,24,12,39,20.80
2010,06,24,12,40,20.80
2010,06,24,12,41,20.80
2010,06,24,12,42,20.90
2010,06,24,12,43,20.90
2010,06,24,12,44,20.90
2010,06,24,12,45,21.00
2010,06,24,12,46,21.20
2010,06,24,12,47,21.30
2010,06,24,12,48,21.40
2010,06,24,12,49,21.50
2010,06,24,12,50,21.60
2010,06,24,12,51,21.70
2010,06,24,12,52,21.70
2010,06,24,12,53,21.80
2010,06,24,12,54,21.80
2010,06,24,12,55,21.90
2010,06,24,12,56,22.00
2010,06,24,12,57,22.00
2010,06,24,12,58,22.00
2010,06,24,12,59,22.00
2010,06,24,13,00,22.00
2010,06,24,13,01,21.90
2010,06,24,13,02,21.80
2010,06,24,13,03,21.70
2010,06,24,13,04,21.70
2010,06,24,13,05,21.60
2010,06,24,13,06,21.60
2010,06,24,13,07,21.60
2010,06,24,13,08,21.50
2010,06,24,13,09,21.50
2010,06,24,13,10,21.50
2010,06,24,13,11,21.50
2010,06,24,13,12,21.40
2010,06,24,13,13,21.40
2010,06,24,13,14,21.40
2010,06,24,13,15,21.40
2010,06,24,13,16,21.40
2010,06,24,13,17,21.40
2010,06,24,13,18,21.40
2010,06,24,13,19,21.40
2010,06,24,13,20,21.50
2010,06,24,13,21,21.50
2010,06,24,13,22,21.60
2010,06,24,13,23,21.60
2010,06,24,13,24,21.60
2010,06,24,13,25,21.70
2010,06,24,13,26,21.70
2010,06,24,13,27,21.70
2010,06,24,13,28,21.80
2010,06,24,13,29,21.80
2010,06,24,13,30,21.80
2010,06,24,13,31,21.80
2010,06,24,13,32,21.80
2010,06,24,13,33,21.80
2010,06,24,13,34,21.80
2010,06,24,13,35,21.80
2010,06,24,13,36,21.80
2010,06,24,13,37,21.80
2010,06,24,13,38,21.80
2010,06,24,13,39,21.80
2010,06,24,13,40,21.80
2010,06,24,13,41,21.70
2010,06,24,13,42,21.70
2010,06,24,13,43,21.60
2010,06,24,13,44,21.50
2010,06,24,13,45,21.40
2010,06,24,13,46,21.40
2010,06,24,13,47,21.50
2010,06,24,13,48,21.50
2010,06,24,13,49,21.60
2010,06,24,13,50,21.60
2010,06,24,13,51,21.60
2010,06,24,13,52,21.70
2010,06,24,13,53,21.70
2010,06,24,13,54,21.80
2010,06,24,13,55,21.80
2010,06,24,13,56,21.80
2010,06,24,13,57,21.80
2010,06,24,13,58,21.80
2010,06,24,13,59,21.70
2010,06,24,14,00,21.60
2010,06,24,14,01,21.60
2010,06,24,14,02,21.50
2010,06,24,14,03,21.50
2010,06,24,14,04,21.50
2010,06,24,14,05,21.50
2010,06,24,14,06,21.50
2010,06,24,14,07,21.60
2010,06,24,14,08,21.60
2010,06,24,14,09,21.70
2010,06,24,14,10,21.70
2010,06,24,14,11,21.80
2010,06,24,14,12,21.80
2010,06,24,14,13,21.80
2010,06,24,14,14,22.00
2010,06,24,14,15,22.00
2010,06,24,14,16,22.10
2010,06,24,14,17,22.20
2010,06,24,14,18,22.20
2010,06,24,14,19,22.30
2010,06,24,14,20,22.40
2010,06,24,14,21,22.40
2010,06,24,14,22,22.50
2010,06,24,14,23,22.60
2010,06,24,14,24,22.70
2010,06,24,14,25,22.70
2010,06,24,14,26,22.70
2010,06,24,14,27,22.60
2010,06,24,14,28,22.60
2010,06,24,14,29,22.60
2010,06,24,14,30,22.60
2010,06,24,14,31,22.70
2010,06,24,14,32,22.70
2010,06,24,14,33,22.70
2010,06,24,14,34,22.70
2010,06,24,14,35,22.60
2010,06,24,14,36,22.50
2010,06,24,14,37,22.40
2010,06,24,14,38,22.40
2010,06,24,14,39,22.30
2010,06,24,14,40,22.30
2010,06,24,14,41,22.30
2010,06,24,14,42,22.30
2010,06,24,14,43,22.30
2010,06,24,14,44,22.30
2010,06,24,14,45,22.40
2010,06,24,14,46,22.40
2010,06,24,14,47,22.40
2010,06,24,14,48,22.40
2010,06,24,14,49,22.50
2010,06,24,14,50,22.50
2010,06,24,14,51,22.60
2010,06,24,14,52,22.60
2010,06,24,14,53,22.70
2010,06,24,14,54,22.70
2010,06,24,14,55,22.70
2010,06,24,14,56,22.70
2010,06,24,14,57,22.70
2010,06,24,14,58,22.70
2010,06,24,14,59,22.80
2010,06,24,15,00,22.80
2010,06,24,15,01,22.80
2010,06,24,15,02,22.90
2010,06,24,15,03,22.90
2010,06,24,15,04,23.00
2010,06,24,15,05,23.10
2010,06,24,15,06,23.10
2010,06,24,15,07,23.10
2010,06,24,15,08,23.10
2010,06,24,15,09,23.10
2010,06,24,15,10,23.10
2010,06,24,15,11,23.10
2010,06,24,15,12,23.10
2010,06,24,15,13,23.10
2010,06,24,15,14,23.00
2010,06,24,15,15,23.00
2010,06,24,15,16,23.00
2010,06,24,15,17,23.00
2010,06,24,15,18,23.00
2010,06,24,15,19,23.00
2010,06,24,15,20,22.90
2010,06,24,15,21,22.90
2010,06,24,15,22,22.80
2010,06,24,15,23,22.80
2010,06,24,15,24,22.80
2010,06,24,15,25,22.70
2010,06,24,15,26,22.70
2010,06,24,15,27,22.60
2010,06,24,15,28,22.60
2010,06,24,15,29,22.60
2010,06,24,15,30,22.60
2010,06,24,15,31,22.50
2010,06,24,15,32,22.50
2010,06,24,15,33,22.50
2010,06,24,15,34,22.40
2010,06,24,15,35,22.50
2010,06,24,15,36,22.50
2010,06,24,15,37,22.50
2010,06,24,15,38,22.50
2010,06,24,15,39,22.50
2010,06,24,15,40,22.50
2010,06,24,15,41,22.50
2010,06,24,15,42,22.50
2010,06,24,15,43,22.50
2010,06,24,15,44,22.50
2010,06,24,15,45,22.40
2010,06,24,15,46,22.40
2010,06,24,15,47,22.40
2010,06,24,15,48,22.50
2010,06,24,15,49,22.60
2010,06,24,15,50,22.70
2010,06,24,15,51,22.80
2010,06,24,15,52,22.80
2010,06,24,15,53,22.90
2010,06,24,15,54,23.00
2010,06,24,15,55,23.10
2010,06,24,15,56,23.20
2010,06,24,15,57,23.30
2010,06,24,15,58,23.30
2010,06,24,15,59,23.20
2010,06,24,16,00,23.20
2010,06,24,16,01,23.20
2010,06,24,16,02,23.10
2010,06,24,16,03,23.10
2010,06,24,16,04,23.10
2010,06,24,16,05,23.20
2010,06,24,16,06,23.30
2010,06,24,16,07,23.40
2010,06,24,16,08,23.50
2010,06,24,16,09,23.60
2010,06,24,16,10,23.60
2010,06,24,16,11,23.70
2010,06,24,16,12,23.80
2010,06,24,16,13,23.80
2010,06,24,16,14,23.80
2010,06,24,16,15,23.80
2010,06,24,16,16,23.90
2010,06,24,16,17,23.90
2010,06,24,16,18,23.90
2010,06,24,16,19,23.80
2010,06,24,16,20,23.80
2010,06,24,16,21,23.90
2010,06,24,16,22,23.90
2010,06,24,16,23,23.90
2010,06,24,16,24,23.80
2010,06,24,16,25,23.70
2010,06,24,16,26,23.70
2010,06,24,16,27,23.60
2010,06,24,16,28,23.60
2010,06,24,16,29,23.60
2010,06,24,16,30,23.50
2010,06,24,16,31,23.50
2010,06,24,16,32,23.50
2010,06,24,16,33,23.40
2010,06,24,16,34,23.40
2010,06,24,16,35,23.40
2010,06,24,16,36,23.40
2010,06,24,16,37,23.40
2010,06,24,16,38,23.50
2010,06,24,16,39,23.60
2010,06,24,16,40,23.60
2010,06,24,16,41,23.70
2010,06,24,16,42,23.70
2010,06,24,16,43,23.60
2010,06,24,16,44,23.60
2010,06,24,16,45,23.40
2010,06,24,16,46,23.40
2010,06,24,16,47,23.40
2010,06,24,16,48,23.30
2010,06,24,16,49,23.20
2010,06,24,16,50,23.20
2010,06,24,16,51,23.20
2010,06,24,16,52,23.20
2010,06,24,16,53,23.20
2010,06,24,16,54,23.20
2010,06,24,16,55,23.30
2010,06,24,16,56,23.40
2010,06,24,16,57,23.40
2010,06,24,16,58,23.40
2010,06,24,16,59,23.40
2010,06,24,17,00,23.40
2010,06,24,17,01,23.30
2010,06,24,17,02,23.20
2010,06,24,17,03,23.20
2010,06,24,17,04,23.20
2010,06,24,17,05,23.20
2010,06,24,17,06,23.20
2010,06,24,17,07,23.20
2010,06,24,17,08,23.20
2010,06,24,17,09,23.10
2010,06,24,17,10,23.10
2010,06,24,17,11,23.10
2010,06,24,17,12,23.20
2010,06,24,17,13,23.20
2010,06,24,17,14,23.20
2010,06,24,17,15,23.20
2010,06,24,17,16,23.20
2010,06,24,17,17,23.30
2010,06,24,17,18,23.30
2010,06,24,17,19,23.30
2010,06,24,17,20,23.20
2010,06,24,17,21,23.20
2010,06,24,17,22,23.20
2010,06,24,17,23,23.20